#timestamp,LO_Frequency,Hit,StdDev 
1620740835.9,286046991.9,P
1620740855.7,286046991.7,P
1620740875.6,286046994.3,P
1620740895.4,286046991.9,Y
1620740915.2,286046998.9,P
1620740935.1,286047000.8,N
1620740936.0,286047000.8,N
1620740955.8,286046998.6,N
1620740975.7,286046998.7,N
1620740995.5,286047000.9,N
1620741015.3,286047000.3,N
1620741035.2,286047001.0,N
1620741055.0,286047002.8,N
1620741055.9,286047002.8,N
1620741075.8,286047000.2,N
1620741095.6,286047000.3,N
1620741115.4,286046998.1,N
1620741135.3,286047000.8,N
1620741155.1,286046998.8,N
1620741175.8,286046999.5,N
1620741195.7,286046997.7,N
1620741215.5,286046997.6,N
1620741235.3,286046997.2,N
1620741255.2,286046998.8,N
1620741275.0,286046998.9,N
1620741275.9,286046998.9,N
1620741295.8,286046999.3,N
1620741315.6,286046999.3,N
1620741335.4,286046999.1,N
1620741355.3,286046999.4,N
1620741375.1,286046997.1,N
1620741395.9,286046997.6,N
1620741415.7,286046995.0,N
1620741435.5,286046995.3,N
1620741455.4,286046997.9,N
1620741475.2,286046997.7,N
1620741495.0,286046998.0,N
1620741495.9,286046998.0,N
1620741515.8,286046994.9,N
1620741535.6,286046995.6,N
1620741555.5,286046996.2,N
1620741575.3,286046996.0,N
1620741595.1,286046995.6,N
